Regional Weather Roundup
Issued by NWS Binghamton, NY

Home | Current Version | Previous Version | Text Only | Print | Product List | Glossary On
Versions: 1 2 3 4 5 6 7 8 9 10 11 12 13 14 15 16 17 18 19 20 21 22 23 24 25 26 27
000
ASUS41 KBGM 242110
RWRBGM

REGIONAL WEATHER ROUNDUP
NATIONAL WEATHER SERVICE BINGHAMTON NY
500 PM EDT SAT SEP 24 2016

Note: "fair" indicates few or no clouds below 12,000 feet with no
significant weather and/or obstructions to visibility.

* = Station(s) that does not report precipitation, such as rain,
snow, etc, also no thunder or fog.

NYZ009-015>018-022>025-036-037-044>046-055>057-062-242200
...Central New York...

CITY           SKY/WX    TMP DP  RH WIND       PRES   REMARKS
Binghamton     SUNNY     60  38  43 N15       30.15S
Cortland       FAIR      61  41  48 N6        30.18S
Dansville      MOSUNNY   65  43  44 N12       30.19F
Elmira         PTSUNNY   65  44  46 N10       30.16S
Ithaca         MOSUNNY   61  44  53 NW12      30.18S
Hamilton       SUNNY     63  39  42 NW10      30.17S
Hornell        MOSUNNY   63  43  48 N10       30.22S
Monticello     SUNNY     63  41  45 N14       30.13S
Norwich        SUNNY     61  37  41 N8        30.16S
Oneonta        SUNNY     57  37  47 N5        30.14F
Penn Yan       SUNNY     65  42  43 N10       30.19S
Rome           SUNNY     63  41  44 N9        30.15F
Sidney         SUNNY     63  41  45 N5        30.15S
Syracuse       MOSUNNY   62  39  42 NW14G20   30.17F
$$

PAZ038>040-043-044-047-048-072-242200
...Northeast Pennsylvania...

CITY           SKY/WX    TMP DP  RH WIND       PRES   REMARKS
Hazleton       SUNNY     64  43  45 NW8       30.15F
Scranton       SUNNY     68  43  40 N8        30.12S
$$
&&
KEY
WCI = Wind Chill Index
VSB = Visibility
HX  = Heat Index
$$




USA.gov is the U.S. government's official web portal to all federal, state and local government web resources and services.